World > North America > United States > South Carolina > Vance  

Vance, SC Hourly Weather Updates

Feedback E-mail the Weather

Quick Clicks

Vance, SC Weather Maps

°F °C°F °C
Vance Weather Map
UTC Time: 4/22/2024, 10:36
Your Time:

Vance, SC Regional Weather

Expires:202404221100;;178160
ASUS42 KCAE 221010
RWRCAE
REGIONAL WEATHER ROUNDUP
NATIONAL WEATHER SERVICE COLUMBIA SC
600 AM EDT MON APR 22 2024

NOTE: "FAIR" INDICATES FEW OR NO CLOUDS BELOW 12,000 FEET WITH NO
SIGNIFICANT WEATHER AND/OR OBSTRUCTIONS TO VISIBILITY.

NOT ALL STATIONS ARE QUALITY CONTROLLED BY THE NATIONAL 
WEATHER SERVICE. USE DATA WITH CAUTION...ESPECIALLY 
DEWPOINT OBSERVATIONS.


SCZ001>059-115-116-135>137-GAZ040-063>065-077-221100-
...UPSTATE SOUTH CAROLINA...
  
CITY           SKY/WX    TMP DP  RH WIND       PRES   REMARKS
ANDERSON       CLOUDY    50  37  61 VRB5      30.06R                  
LIBERTY        CLOUDY    47  40  78 CALM      30.07R                  
SPARTANBURG    CLOUDY    45  36  70 N9        30.07R                  
CLEMSON        CLOUDY    48  38  68 N3        30.07R                  
GREENVILLE     CLOUDY    47  34  60 N10       30.06R                  
GREENWOOD      CLOUDY    48  44  86 N7        30.06R                  
GREER          CLOUDY    46  35  65 N7        30.06R                  
ROCK HILL      PTCLDY    45  40  82 NE7       30.07R                  
CHESTER        MOCLDY    45  45 100 N7        30.07R                  
LAURENS        CLOUDY    46  46 100 N6        30.06R                  


...CENTRAL SOUTH CAROLINA...
  
CITY           SKY/WX    TMP DP  RH WIND       PRES   REMARKS
COLUMBIA APT   CLOUDY    49  49 100 CALM      30.04R                  
COLUMBIA OWENS CLOUDY    50  48  93 VRB3      30.05R                  
MCENTIRE ANGB  CLOUDY    50  48  91 N7        30.02R                  
ORANGEBURG     CLOUDY    52  48  86 N7        30.03R                  
SUMTER SHAW    MOCLDY    51  47  89 N7        30.03R                  
AIKEN          CLOUDY    51  49  95 N5        30.05R                  
BARNWELL       CLOUDY    52  50  93 N6        30.04R                  
MANNING        CLOUDY    50  46  87 NE7       30.03R                  
CAMDEN         CLOUDY    46  46 100 NE3       30.05R                  
LANCASTER      PTCLDY    46  46 100 NE6       30.06R                  
WINNSBORO      CLOUDY    46  46 100 NE6       30.04R                  


...EASTERN AND COASTAL SOUTH CAROLINA...
  
CITY           SKY/WX    TMP DP  RH WIND       PRES   REMARKS
MYRTLE BEACH   CLOUDY    52  49  89 N9        30.01R                  
N MYRTLE BCH   CLOUDY    51  47  86 N9        30.00R                  
CONWAY         CLOUDY    50  46  87 N3        30.02S                  
MARION         CLOUDY    48  48 100 NE7       30.03S                  
HARTSVILLE     MOCLDY    46  45  93 NE5       30.05R                  
FLORENCE       CLOUDY    50  47  89 NE8       30.03S                  
DARLINGTON     MOCLDY    48  48 100 N8        30.05R                  
CHARLESTON APT CLOUDY    53  48  83 N10       30.01R                  
MOUNT PLEASANT CLOUDY    54  54 100 NE7       30.00R                  
WALTERBORO     CLOUDY    50  50 100 NW3       30.03R                  
BEAUFORT       CLOUDY    55  51  86 N8        30.01R                  
HILTON HEAD    CLOUDY    55  50  82 N12       30.01R                  


...EASTERN GEORGIA...
  
CITY           SKY/WX    TMP DP  RH WIND       PRES   REMARKS
AUGUSTA BUSH F CLOUDY    53  50  89 NE5       30.03R                  
AUGUSTA DANIEL CLOUDY    53  49  86 N5        30.04R                  
THOMSON        CLOUDY    53  53  97 CALM      30.04R                  
WASHINGTON     CLOUDY    50  49  95 N3        30.05R                  
CLAXTON        CLOUDY    56  53  91 CALM      30.03R                  
STATESBORO     CLOUDY    54  52  94 N6        30.03R                  
SAVANNAH       CLOUDY    53  50  89 N7        30.00S                  


...SOUTHERN NORTH CAROLINA...
  
CITY           SKY/WX    TMP DP  RH WIND       PRES   REMARKS
CHARLOTTE      MOCLDY    45  37  73 N9        30.07R                  
MONROE         PTCLDY    46  44  93 NE7       30.06R                  
ASHEVILLE      MOCLDY    42  29  59 N9        30.08R                  

$$
  

SKY/WX - Weather  TMP - Temperature  DP - Dew Point  RH - Humidity
WIND - Wind Direction/Speed PRES - Barometric Pressure VSB - Visibility
WCI - Wind Chill Index E13G22 Wind - East Wind 13 mph/Gusts of 22 mph

Trending Headlines

Trending Entertainment Headlines

Vance Radar Loop

Use the map search tool if you want to place a location marker on the radar map...

Vance Quick Facts

National Two Day Weather Forecast


E-mail the Vance Weather Forecast

Voice your opinion or tell us about page issues...